Date,TemperatureHighF,TemperatureAvgF,TemperatureLowF,DewpointHighF,DewpointAvgF,DewpointLowF,HumidityHigh,HumidityAvg,HumidityLow,PressureMaxIn,PressureMinIn,WindSpeedMaxMPH,WindSpeedAvgMPH,GustSpeedMaxMPH,PrecipitationSumIn
2013-1-1,32,25,9,27,16,2,90,69,53,30.10,29.88,4,1,13,0.00
2013-1-2,24,11,0,15,5,-5,88,77,63,30.34,30.03,3,0,10,0.00
2013-1-3,17,4,-8,4,-3,-12,85,72,44,30.37,30.19,3,0,5,0.00
2013-1-4,36,24,6,23,17,3,90,74,57,30.20,29.99,6,1,15,0.00
2013-1-5,37,30,19,25,20,15,84,67,45,30.40,30.00,3,1,11,0.00
2013-1-6,36,28,18,28,23,14,91,83,72,30.35,30.09,2,0,5,0.01
2013-1-7,31,26,13,27,19,9,93,78,48,30.55,30.13,4,0,7,0.01
2013-1-8,41,24,11,26,18,8,92,80,52,30.55,30.45,4,0,9,0.01
2013-1-9,41,27,16,31,23,14,93,84,60,30.57,30.17,4,0,13,0.01
2013-1-10,42,36,28,30,25,23,80,62,48,30.71,30.22,4,1,13,0.01
2013-1-11,38,30,22,33,26,20,95,83,58,30.70,30.35,2,0,5,0.11
2013-1-12,41,36,33,40,35,32,97,96,94,30.36,30.28,1,0,2,0.14
2013-1-13,45,39,34,44,38,33,98,97,96,30.30,30.13,1,0,8,0.01
2013-1-14,52,41,32,48,37,26,98,87,64,30.43,30.02,4,0,11,0.01
2013-1-15,36,31,25,28,25,23,95,80,61,30.49,30.38,3,0,6,0.01
2013-1-16,31,29,28,29,27,25,96,92,87,30.41,29.98,0,0,2,0.00
2013-1-17,35,29,21,32,26,12,96,87,63,30.28,29.98,1,0,7,0.01
2013-1-18,21,15,8,14,4,-1,86,64,41,30.58,30.21,4,1,11,0.01
2013-1-19,40,29,17,26,19,8,88,66,49,30.52,30.01,4,1,13,0.05
2013-1-20,44,34,24,32,22,8,87,63,33,30.10,29.70,6,2,19,0.18
2013-1-21,23,19,12,16,8,2,90,65,49,30.22,29.97,4,1,11,0.01
2013-1-22,19,14,5,15,7,-4,90,73,46,30.24,29.93,6,1,12,0.00
2013-1-23,10,4,-5,-3,-8,-12,79,56,35,30.32,30.23,3,0,11,0.00
2013-1-24,15,3,-8,-6,-10,-12,84,58,35,30.45,30.29,4,1,14,0.00
2013-1-25,17,9,-2,7,-5,-10,80,54,31,30.53,30.25,3,0,6,0.00
2013-1-26,19,11,3,7,0,-6,88,65,37,30.45,30.22,2,0,11,0.00
2013-1-27,26,13,3,5,1,-4,85,61,29,30.67,30.45,3,0,9,0.00
2013-1-28,23,16,6,21,12,1,92,83,66,30.67,30.20,2,0,4,0.00
2013-1-29,34,28,22,31,25,20,94,89,81,30.35,30.21,1,0,3,0.02
2013-1-30,53,41,32,52,40,30,98,96,93,30.29,29.54,3,0,11,0.37
2013-1-31,50,35,27,49,23,12,98,64,49,29.70,29.16,8,3,19,0.78